SCP
2 1 1 1 1 1 1 1 1 1 0 0 0 0 0 0 0 1 1 0 0 0 0 0 0 0 0 0 0 0 0 0 0 0 0 -0 0 0 0 0 0 0 0
2 2 1 1 1 1 1 1 1 1 0 0 0 0 0 0 1 0 1 0 0 0 0 0 0 0 0 0 0 0 0 0 0 0 0 0 0 0 0 0 0 0 0
2 2 2 2 1 1 1 1 1 1 1 0 0 0 0 0 1 0 1 0 0 0 0 0 0 0 0 0 0 0 0 0 0 0 -0 -0 0 0 0 0 0 0 0
2 2 1 2 2 2 1 1 1 1 1 1 0 0 0 0 0 0 0 0 0 0 0 0 0 0 0 0 0 0 0 0 0 0 0 0 0 0 0 0 0 0 0
2 3 2 2 2 2 2 2 2 1 1 1 0 0 1 0 0 0 0 0 0 0 0 0 0 0 0 0 0 0 0 0 0 0 0 0 0 0 0 0 0 0 0
2 3 3 2 2 2 2 2 1 1 1 1 0 0 0 0 0 0 0 0 0 0 0 0 0 0 0 0 0 0 0 0 0 0 0 0 0 0 0 0 0 0 0
2 3 3 3 2 2 2 1 1 1 1 1 0 0 0 0 0 0 0 0 0 0 0 0 0 0 0 0 0 0 0 0 0 0 0 0 0 0 0 0 0 0 0
3 3 3 3 2 2 2 1 1 1 1 1 0 0 0 0 0 0 0 0 0 0 0 0 0 0 0 0 0 0 0 0 0 0 0 0 0 0 0 0 0 0 0
3 3 3 3 3 2 2 2 1 1 1 0 0 0 0 0 0 0 0 0 0 0 0 0 0 0 0 0 0 0 0 0 0 0 0 0 0 0 0 0 0 0 0
3 3 3 4 3 2 2 2 1 1 1 0 0 0 0 0 0 0 0 0 0 0 0 0 0 0 0 0 0 0 0 0 0 0 0 0 0 0 0 0 0 0 0
3 4 3 3 3 3 2 2 2 1 1 1 0 0 0 0 0 0 0 0 0 0 0 0 0 0 0 0 0 0 0 0 0 0 0 0 0 0 0 0 0 0 0
3 3 3 4 4 3 2 2 2 1 1 1 1 1 1 0 0 0 0 0 0 0 0 0 0 0 0 0 0 0 0 0 0 0 0 0 0 0 0 0 0 0 0
2 2 3 4 3 3 3 3 3 2 1 1 1 1 1 1 0 0 0 0 0 0 0 0 0 0 0 0 0 0 0 0 0 0 0 0 0 0 0 0 0 0 0
2 1 2 3 2 3 3 3 3 2 1 1 0 1 0 0 0 0 0 0 0 0 0 0 0 0 0 0 0 0 0 0 0 0 0 0 0 0 0 0 0 0 0
2 1 2 2 2 2 2 3 3 2 1 1 1 0 0 0 0 0 0 0 0 0 0 0 0 0 0 0 0 0 0 0 0 0 0 0 0 0 0 0 0 0 0
2 1 1 1 2 2 1 2 2 1 1 1 1 0 0 0 0 0 0 0 0 0 0 0 0 0 0 0 0 0 0 0 0 0 0 0 0 0 0 0 0 0 0
1 2 1 1 2 2 1 1 1 1 0 0 0 0 0 0 0 0 0 0 0 0 0 0 0 0 0 0 0 0 0 0 0 0 0 0 0 0 0 0 0 0 0
2 1 2 1 1 1 1 1 1 1 0 0 0 0 0 0 0 0 0 0 0 0 0 0 0 0 0 0 0 0 0 0 0 0 0 0 0 0 0 0 0 0 0
1 1 1 1 1 1 1 1 0 0 0 0 0 0 0 0 0 0 0 0 0 0 0 0 0 0 0 0 0 0 0 0 0 0 0 0 0 0 0 0 0 0 0
0 0 0 0 0 0 0 0 0 0 0 0 0 0 0 0 0 0 0 0 0 0 0 0 0 0 0 0 0 0 0 0 0 0 0 0 0 0 0 0 0 0 0
0 0 0 0 0 0 0 0 0 0 0 0 0 0 0 0 0 0 0 0 0 0 0 0 0 0 0 0 0 0 0 0 0 0 0 0 0 0 0 0 0 0 0
0 0 0 0 0 0 0 0 0 0 0 0 0 0 0 0 0 0 0 0 0 0 0 0 0 0 0 0 0 0 0 0 0 0 0 0 0 0 0 0 0 0 0
0 0 0 0 0 0 0 0 0 0 0 0 0 0 0 0 0 0 0 0 0 0 0 0 0 0 0 0 0 0 0 0 0 0 0 0 0 0 0 0 0 0 0
0 0 0 0 0 0 0 0 0 0 0 0 0 0 0 0 0 0 0 0 0 0 0 0 0 0 0 0 0 0 0 0 0 0 0 0 0 0 0 0 0 0 0
-0 0 0 0 0 0 0 0 0 0 0 0 0 0 0 0 0 0 0 0 0 0 0 0 0 0 0 0 0 0 0 0 0 0 0 0 0 0 0 0 0 0 0
0 0 0 0 0 0 0 0 0 0 0 0 0 0 0 0 0 0 0 0 0 0 0 0 0 0 0 0 0 0 0 0 0 0 0 0 0 0 0 0 0 0 0
Wind_Speed_500mb
54 42 41 40 39 38 38 37 37 37 39 37 40 42 40 35 37 36 38 33 37 47 51 64 84 63 57 53 52 50 45 41 37 32 30 30 31 34 35 34 30 31 32
59 60 50 49 41 41 38 37 37 37 38 39 41 40 38 44 41 42 38 40 43 50 52 56 50 53 54 55 54 49 46 42 40 36 33 31 30 32 36 35 35 33 33
51 63 64 64 53 42 42 43 40 43 40 41 43 41 43 45 44 43 45 48 52 49 55 68 66 61 69 65 58 46 39 38 40 39 36 34 32 36 38 37 37 36 35
59 62 65 65 62 55 45 50 49 50 45 45 47 40 43 43 47 46 49 55 44 53 65 59 46 60 70 68 53 44 37 34 34 41 43 39 37 41 39 38 38 38 38
67 71 67 66 63 62 59 55 55 52 49 52 48 44 49 48 48 51 52 54 46 42 49 58 62 56 78 69 47 44 37 33 36 39 39 39 44 42 41 40 41 41 40
68 70 74 71 67 64 63 62 57 55 51 51 51 46 44 50 50 47 52 56 57 39 32 40 45 53 62 41 44 44 42 38 39 38 40 40 45 44 44 43 43 43 41
75 71 75 77 73 69 67 64 59 58 54 49 46 51 45 50 50 50 49 48 52 48 43 40 33 38 52 49 46 47 44 38 39 40 41 43 44 45 45 44 44 42 39
85 76 75 80 81 75 71 69 65 62 60 52 50 46 24 44 57 54 56 50 55 49 38 32 47 51 54 53 51 47 46 43 47 44 41 45 46 44 46 46 46 43 39
99 91 82 82 89 83 77 74 68 63 62 56 53 40 18 20 31 56 64 62 56 59 56 42 43 50 58 47 46 50 49 51 53 48 46 49 48 47 49 50 48 46 44
106 98 89 86 91 87 84 76 68 62 56 57 53 55 56 27 17 17 39 50 48 55 61 59 52 52 57 60 44 49 55 59 57 56 47 50 48 50 50 50 48 46 44
100 102 98 89 92 90 87 80 69 65 55 47 52 55 52 60 55 33 31 25 42 60 56 59 63 57 63 73 61 51 57 56 63 55 56 54 50 47 49 50 49 47 46
94 100 100 94 93 90 88 80 72 65 61 53 48 48 56 62 65 58 47 35 32 34 50 55 55 58 61 71 69 53 57 54 60 62 57 54 51 51 48 47 48 47 45
88 98 99 97 96 87 85 81 75 68 61 63 63 57 54 49 45 45 44 39 40 37 50 49 50 44 48 65 74 64 61 55 51 67 63 57 54 53 52 47 44 39 40
82 90 95 97 93 89 81 83 77 66 62 62 65 63 62 61 57 56 58 53 46 59 63 60 53 47 49 55 78 68 53 56 58 62 64 64 63 58 56 51 47 43 41
66 76 80 86 87 88 82 76 74 66 59 62 63 60 59 55 56 53 50 58 62 31 49 57 51 54 57 58 73 70 58 58 64 61 61 60 61 65 64 59 55 50 47
66 66 72 77 82 86 77 69 67 71 60 58 60 58 55 56 52 50 48 50 50 62 56 43 56 57 55 61 85 65 61 63 62 66 64 61 58 58 63 63 60 57 56
71 71 63 67 86 88 83 72 67 64 57 59 54 54 53 56 50 46 50 54 57 57 67 67 55 55 51 65 74 71 65 55 63 69 64 61 58 57 57 58 58 57 55
70 65 62 71 77 83 78 72 75 66 66 61 57 54 50 49 48 52 55 60 61 62 66 69 63 62 54 64 83 76 67 59 67 74 68 65 65 64 63 63 61 60 61
61 61 63 71 77 81 77 68 70 66 60 49 42 39 40 42 50 52 55 61 67 68 75 78 71 69 65 62 80 80 77 76 73 69 73 72 70 68 65 67 66 66 66
45 49 62 75 78 79 63 68 69 57 44 44 46 49 50 51 52 56 58 61 66 67 75 78 77 78 78 69 79 82 74 70 76 76 77 73 72 71 71 71 71 69 64
28 52 62 67 72 65 63 64 58 46 46 41 41 40 41 43 45 50 54 58 60 69 76 83 82 77 74 77 84 86 82 77 69 67 74 71 74 74 75 72 70 71 69
46 51 63 68 64 64 60 55 49 43 32 30 30 34 32 34 33 35 42 45 54 60 70 80 83 80 79 83 83 97 90 82 72 65 74 74 70 76 78 75 77 75 68
54 60 63 71 74 67 56 47 39 33 30 33 35 32 31 31 31 30 27 30 35 45 45 65 73 77 81 86 95 97 93 88 80 75 66 66 55 50 53 49 51 56 56
47 54 53 45 41 54 47 37 34 30 39 37 34 31 31 28 26 24 23 25 32 36 47 60 64 68 70 84 99 98 100 103 84 80 72 57 53 50 43 40 33 32 31
42 46 47 49 38 35 30 32 31 31 36 31 26 24 24 22 22 23 15 20 22 20 24 37 57 68 71 74 84 91 84 68 72 68 74 60 59 53 44 38 31 25 24
54 50 53 54 47 40 29 25 25 35 34 29 25 21 24 19 17 15 14 14 14 13 18 23 32 39 46 57 61 61 60 71 84 60 66 55 62 58 36 39 38 31 24
Wind_Direction_500mb
225 218 217 216 217 214 214 214 213 218 223 225 227 230 236 234 236 242 243 236 230 231 235 238 203 193 196 197 195 193 198 200 207 213 219 221 221 222 219 207 194 186 181
230 231 221 219 215 218 214 216 218 219 223 226 231 232 237 240 238 242 243 247 241 243 239 255 210 183 196 207 201 201 200 205 210 215 221 222 220 218 207 193 191 188 184
232 232 232 233 225 219 216 217 220 226 225 227 235 237 240 239 240 243 246 243 268 242 267 250 224 213 214 208 204 206 208 208 213 217 218 219 218 209 198 192 191 188 185
229 237 232 231 232 221 220 225 225 227 228 236 242 241 242 240 243 245 254 248 243 263 269 244 251 209 207 209 206 209 210 212 219 220 216 216 214 201 194 194 190 188 188
241 245 238 233 229 230 226 227 229 230 235 238 243 246 242 244 245 254 253 257 253 266 265 251 245 243 207 207 208 209 207 216 220 214 211 209 199 196 195 194 191 191 188
240 242 239 236 231 227 227 227 230 233 237 241 243 244 245 247 249 247 251 252 258 268 253 237 212 203 218 210 215 210 211 214 226 226 214 203 198 198 197 196 193 191 191
240 241 238 237 232 230 229 227 228 230 232 236 246 252 253 253 249 247 249 264 265 260 249 230 230 221 217 221 220 213 215 219 228 236 210 203 201 200 201 197 195 193 195
241 241 240 236 234 229 229 229 227 227 230 230 236 245 243 245 247 248 248 259 260 247 241 237 231 238 218 217 217 214 217 224 233 233 210 206 204 205 202 199 199 197 198
239 240 237 236 234 230 230 231 228 227 228 227 230 226 213 225 239 252 254 257 259 241 238 247 244 240 234 209 218 216 221 226 229 224 217 211 204 207 205 203 204 202 204
234 237 237 233 233 233 230 230 230 226 226 227 227 231 233 230 216 240 252 247 246 244 243 248 246 249 241 236 215 227 218 223 225 228 215 209 212 212 211 209 208 208 210
230 233 234 232 232 233 232 228 225 224 219 219 224 230 232 241 245 239 249 258 246 246 245 249 249 258 240 228 222 218 227 225 223 221 210 212 218 218 214 211 213 213 214
228 229 233 232 233 231 230 229 226 227 228 219 222 227 232 232 236 243 246 242 251 255 250 255 255 256 240 230 215 220 229 228 222 212 208 213 219 220 224 221 217 216 218
228 229 227 229 229 229 229 228 227 228 229 229 228 229 232 229 233 236 240 247 244 249 262 264 259 249 246 230 218 216 226 225 221 207 207 213 216 220 223 227 222 219 226
230 230 228 227 227 225 225 227 229 227 232 230 230 231 236 242 242 247 252 239 246 251 259 265 269 261 239 242 232 220 226 224 216 207 212 217 220 219 221 221 221 224 228
231 229 225 222 224 222 224 226 227 222 232 232 229 231 238 241 241 249 250 248 246 245 245 258 257 261 247 230 225 221 220 226 217 215 217 219 221 221 221 220 221 223 227
226 232 231 223 226 222 222 220 222 231 231 225 225 228 236 235 242 242 243 243 246 250 251 255 254 259 252 247 224 213 213 220 222 221 221 222 223 222 220 223 225 227 228
232 234 236 225 219 217 222 225 228 226 217 220 224 227 234 241 240 243 246 250 252 252 244 257 250 245 250 232 214 202 205 210 225 222 221 220 219 219 220 221 225 225 230
230 231 232 220 218 214 214 218 225 213 215 219 225 231 236 241 242 246 254 254 260 261 257 253 253 225 249 235 220 211 207 214 217 218 215 216 218 221 223 226 228 230 232
234 226 223 217 212 212 204 210 213 209 214 218 218 226 232 242 247 249 253 256 261 267 263 258 254 238 245 235 223 215 221 217 221 221 219 220 222 223 226 228 228 232 233
233 231 219 205 200 197 194 201 202 195 202 209 219 232 240 244 251 255 255 260 262 267 261 241 242 234 242 233 216 210 211 218 225 221 222 221 222 222 224 228 230 227 230
222 208 198 194 194 185 186 193 192 187 210 220 231 236 244 251 256 258 263 265 260 262 260 240 232 233 221 217 210 208 212 218 221 220 225 219 220 223 225 226 223 228 232
202 208 199 194 190 186 186 192 189 184 200 226 226 230 242 247 264 269 270 261 258 257 251 246 235 227 218 221 213 207 209 215 196 209 209 208 206 210 214 219 230 230 237
183 186 183 179 179 180 177 184 185 178 193 208 222 228 238 248 260 265 282 267 264 262 253 237 227 223 217 223 218 209 211 215 214 214 207 194 194 199 199 206 216 227 236
114 116 131 141 142 155 170 177 170 173 194 211 211 222 231 247 261 260 274 277 270 262 245 233 225 221 222 215 219 216 215 215 216 219 200 190 197 200 203 208 214 219 220
95 101 104 111 116 126 154 171 176 188 194 199 197 208 218 228 244 254 257 271 261 257 252 245 231 225 223 213 214 216 202 209 195 198 199 203 184 186 187 189 195 196 202
71 72 80 90 94 102 124 139 163 177 183 184 179 187 196 200 202 211 218 214 207 184 172 177 193 212 212 202 203 206 214 222 214 184 194 196 189 186 166 190 194 193 194
Wind_Speed_850mb
54 42 41 40 39 38 38 37 37 37 39 37 40 42 40 35 37 36 38 33 37 47 51 64 84 63 57 53 52 50 45 41 37 32 30 30 31 34 35 34 30 31 32
59 60 50 49 41 41 38 37 37 37 38 39 41 40 38 44 41 42 38 40 43 50 52 56 50 53 54 55 54 49 46 42 40 36 33 31 30 32 36 35 35 33 33
51 63 64 64 53 42 42 43 40 43 40 41 43 41 43 45 44 43 45 48 52 49 55 68 66 61 69 65 58 46 39 38 40 39 36 34 32 36 38 37 37 36 35
59 62 65 65 62 55 45 50 49 50 45 45 47 40 43 43 47 46 49 55 44 53 65 59 46 60 70 68 53 44 37 34 34 41 43 39 37 41 39 38 38 38 38
67 71 67 66 63 62 59 55 55 52 49 52 48 44 49 48 48 51 52 54 46 42 49 58 62 56 78 69 47 44 37 33 36 39 39 39 44 42 41 40 41 41 40
68 70 74 71 67 64 63 62 57 55 51 51 51 46 44 50 50 47 52 56 57 39 32 40 45 53 62 41 44 44 42 38 39 38 40 40 45 44 44 43 43 43 41
75 71 75 77 73 69 67 64 59 58 54 49 46 51 45 50 50 50 49 48 52 48 43 40 33 38 52 49 46 47 44 38 39 40 41 43 44 45 45 44 44 42 39
85 76 75 80 81 75 71 69 65 62 60 52 50 46 24 44 57 54 56 50 55 49 38 32 47 51 54 53 51 47 46 43 47 44 41 45 46 44 46 46 46 43 39
99 91 82 82 89 83 77 74 68 63 62 56 53 40 18 20 31 56 64 62 56 59 56 42 43 50 58 47 46 50 49 51 53 48 46 49 48 47 49 50 48 46 44
106 98 89 86 91 87 84 76 68 62 56 57 53 55 56 27 17 17 39 50 48 55 61 59 52 52 57 60 44 49 55 59 57 56 47 50 48 50 50 50 48 46 44
100 102 98 89 92 90 87 80 69 65 55 47 52 55 52 60 55 33 31 25 42 60 56 59 63 57 63 73 61 51 57 56 63 55 56 54 50 47 49 50 49 47 46
94 100 100 94 93 90 88 80 72 65 61 53 48 48 56 62 65 58 47 35 32 34 50 55 55 58 61 71 69 53 57 54 60 62 57 54 51 51 48 47 48 47 45
88 98 99 97 96 87 85 81 75 68 61 63 63 57 54 49 45 45 44 39 40 37 50 49 50 44 48 65 74 64 61 55 51 67 63 57 54 53 52 47 44 39 40
82 90 95 97 93 89 81 83 77 66 62 62 65 63 62 61 57 56 58 53 46 59 63 60 53 47 49 55 78 68 53 56 58 62 64 64 63 58 56 51 47 43 41
66 76 80 86 87 88 82 76 74 66 59 62 63 60 59 55 56 53 50 58 62 31 49 57 51 54 57 58 73 70 58 58 64 61 61 60 61 65 64 59 55 50 47
66 66 72 77 82 86 77 69 67 71 60 58 60 58 55 56 52 50 48 50 50 62 56 43 56 57 55 61 85 65 61 63 62 66 64 61 58 58 63 63 60 57 56
71 71 63 67 86 88 83 72 67 64 57 59 54 54 53 56 50 46 50 54 57 57 67 67 55 55 51 65 74 71 65 55 63 69 64 61 58 57 57 58 58 57 55
70 65 62 71 77 83 78 72 75 66 66 61 57 54 50 49 48 52 55 60 61 62 66 69 63 62 54 64 83 76 67 59 67 74 68 65 65 64 63 63 61 60 61
61 61 63 71 77 81 77 68 70 66 60 49 42 39 40 42 50 52 55 61 67 68 75 78 71 69 65 62 80 80 77 76 73 69 73 72 70 68 65 67 66 66 66
45 49 62 75 78 79 63 68 69 57 44 44 46 49 50 51 52 56 58 61 66 67 75 78 77 78 78 69 79 82 74 70 76 76 77 73 72 71 71 71 71 69 64
28 52 62 67 72 65 63 64 58 46 46 41 41 40 41 43 45 50 54 58 60 69 76 83 82 77 74 77 84 86 82 77 69 67 74 71 74 74 75 72 70 71 69
46 51 63 68 64 64 60 55 49 43 32 30 30 34 32 34 33 35 42 45 54 60 70 80 83 80 79 83 83 97 90 82 72 65 74 74 70 76 78 75 77 75 68
54 60 63 71 74 67 56 47 39 33 30 33 35 32 31 31 31 30 27 30 35 45 45 65 73 77 81 86 95 97 93 88 80 75 66 66 55 50 53 49 51 56 56
47 54 53 45 41 54 47 37 34 30 39 37 34 31 31 28 26 24 23 25 32 36 47 60 64 68 70 84 99 98 100 103 84 80 72 57 53 50 43 40 33 32 31
42 46 47 49 38 35 30 32 31 31 36 31 26 24 24 22 22 23 15 20 22 20 24 37 57 68 71 74 84 91 84 68 72 68 74 60 59 53 44 38 31 25 24
54 50 53 54 47 40 29 25 25 35 34 29 25 21 24 19 17 15 14 14 14 13 18 23 32 39 46 57 61 61 60 71 84 60 66 55 62 58 36 39 38 31 24
Wind_Direction_850mb
225 218 217 216 217 214 214 214 213 218 223 225 227 230 236 234 236 242 243 236 230 231 235 238 203 193 196 197 195 193 198 200 207 213 219 221 221 222 219 207 194 186 181
230 231 221 219 215 218 214 216 218 219 223 226 231 232 237 240 238 242 243 247 241 243 239 255 210 183 196 207 201 201 200 205 210 215 221 222 220 218 207 193 191 188 184
232 232 232 233 225 219 216 217 220 226 225 227 235 237 240 239 240 243 246 243 268 242 267 250 224 213 214 208 204 206 208 208 213 217 218 219 218 209 198 192 191 188 185
229 237 232 231 232 221 220 225 225 227 228 236 242 241 242 240 243 245 254 248 243 263 269 244 251 209 207 209 206 209 210 212 219 220 216 216 214 201 194 194 190 188 188
241 245 238 233 229 230 226 227 229 230 235 238 243 246 242 244 245 254 253 257 253 266 265 251 245 243 207 207 208 209 207 216 220 214 211 209 199 196 195 194 191 191 188
240 242 239 236 231 227 227 227 230 233 237 241 243 244 245 247 249 247 251 252 258 268 253 237 212 203 218 210 215 210 211 214 226 226 214 203 198 198 197 196 193 191 191
240 241 238 237 232 230 229 227 228 230 232 236 246 252 253 253 249 247 249 264 265 260 249 230 230 221 217 221 220 213 215 219 228 236 210 203 201 200 201 197 195 193 195
241 241 240 236 234 229 229 229 227 227 230 230 236 245 243 245 247 248 248 259 260 247 241 237 231 238 218 217 217 214 217 224 233 233 210 206 204 205 202 199 199 197 198
239 240 237 236 234 230 230 231 228 227 228 227 230 226 213 225 239 252 254 257 259 241 238 247 244 240 234 209 218 216 221 226 229 224 217 211 204 207 205 203 204 202 204
234 237 237 233 233 233 230 230 230 226 226 227 227 231 233 230 216 240 252 247 246 244 243 248 246 249 241 236 215 227 218 223 225 228 215 209 212 212 211 209 208 208 210
230 233 234 232 232 233 232 228 225 224 219 219 224 230 232 241 245 239 249 258 246 246 245 249 249 258 240 228 222 218 227 225 223 221 210 212 218 218 214 211 213 213 214
228 229 233 232 233 231 230 229 226 227 228 219 222 227 232 232 236 243 246 242 251 255 250 255 255 256 240 230 215 220 229 228 222 212 208 213 219 220 224 221 217 216 218
228 229 227 229 229 229 229 228 227 228 229 229 228 229 232 229 233 236 240 247 244 249 262 264 259 249 246 230 218 216 226 225 221 207 207 213 216 220 223 227 222 219 226
230 230 228 227 227 225 225 227 229 227 232 230 230 231 236 242 242 247 252 239 246 251 259 265 269 261 239 242 232 220 226 224 216 207 212 217 220 219 221 221 221 224 228
231 229 225 222 224 222 224 226 227 222 232 232 229 231 238 241 241 249 250 248 246 245 245 258 257 261 247 230 225 221 220 226 217 215 217 219 221 221 221 220 221 223 227
226 232 231 223 226 222 222 220 222 231 231 225 225 228 236 235 242 242 243 243 246 250 251 255 254 259 252 247 224 213 213 220 222 221 221 222 223 222 220 223 225 227 228
232 234 236 225 219 217 222 225 228 226 217 220 224 227 234 241 240 243 246 250 252 252 244 257 250 245 250 232 214 202 205 210 225 222 221 220 219 219 220 221 225 225 230
230 231 232 220 218 214 214 218 225 213 215 219 225 231 236 241 242 246 254 254 260 261 257 253 253 225 249 235 220 211 207 214 217 218 215 216 218 221 223 226 228 230 232
234 226 223 217 212 212 204 210 213 209 214 218 218 226 232 242 247 249 253 256 261 267 263 258 254 238 245 235 223 215 221 217 221 221 219 220 222 223 226 228 228 232 233
233 231 219 205 200 197 194 201 202 195 202 209 219 232 240 244 251 255 255 260 262 267 261 241 242 234 242 233 216 210 211 218 225 221 222 221 222 222 224 228 230 227 230
222 208 198 194 194 185 186 193 192 187 210 220 231 236 244 251 256 258 263 265 260 262 260 240 232 233 221 217 210 208 212 218 221 220 225 219 220 223 225 226 223 228 232
202 208 199 194 190 186 186 192 189 184 200 226 226 230 242 247 264 269 270 261 258 257 251 246 235 227 218 221 213 207 209 215 196 209 209 208 206 210 214 219 230 230 237
183 186 183 179 179 180 177 184 185 178 193 208 222 228 238 248 260 265 282 267 264 262 253 237 227 223 217 223 218 209 211 215 214 214 207 194 194 199 199 206 216 227 236
114 116 131 141 142 155 170 177 170 173 194 211 211 222 231 247 261 260 274 277 270 262 245 233 225 221 222 215 219 216 215 215 216 219 200 190 197 200 203 208 214 219 220
95 101 104 111 116 126 154 171 176 188 194 199 197 208 218 228 244 254 257 271 261 257 252 245 231 225 223 213 214 216 202 209 195 198 199 203 184 186 187 189 195 196 202
71 72 80 90 94 102 124 139 163 177 183 184 179 187 196 200 202 211 218 214 207 184 172 177 193 212 212 202 203 206 214 222 214 184 194 196 189 186 166 190 194 193 194